owner,sensor,date,latitude,longitude,vertical_datum,sea_water_practical_salinity,qcFlag 
DISL,ioos:station:DISL:MBLA:1,2011-10-01T00:03:00Z,30.4367,-88.0117,3.076,24.69,1111122 
DISL,ioos:station:DISL:MBLA:1,2011-10-01T00:06:00Z,30.4367,-88.0117,2.601,21.64,1111122 
DISL,ioos:station:DISL:MBLA:1,2011-10-01T00:08:00Z,30.4367,-88.0117,1.861,20.25,1111122 
DISL,ioos:station:DISL:MBLA:1,2011-10-01T00:12:00Z,30.4367,-88.0117,1.435,19.27,1111122 
DISL,ioos:station:DISL:MBLA:1,2011-10-01T00:15:00Z,30.4367,-88.0117,1.033,19.12,1111122 
DISL,ioos:station:DISL:MBLA:1,2011-10-01T00:18:00Z,30.4367,-88.0117,0.477,19.0,1111122 
DISL,ioos:station:DISL:MBLA:1,2011-10-01T00:30:00Z,30.4367,-88.0117,1.0,19.1,11111222 
DISL,ioos:station:DISL:MBLA:1,2011-10-01T01:03:00Z,30.4367,-88.0117,3.029,24.93,1111122 
DISL,ioos:station:DISL:MBLA:1,2011-10-01T01:06:00Z,30.4367,-88.0117,2.506,21.26,1111122 
DISL,ioos:station:DISL:MBLA:1,2011-10-01T01:09:00Z,30.4367,-88.0117,1.994,20.67,1111122 
DISL,ioos:station:DISL:MBLA:1,2011-10-01T01:11:00Z,30.4367,-88.0117,1.405,20.23,1111122 
DISL,ioos:station:DISL:MBLA:1,2011-10-01T01:14:00Z,30.4367,-88.0117,0.868,19.67,1111122 
DISL,ioos:station:DISL:MBLA:1,2011-10-01T01:17:00Z,30.4367,-88.0117,0.232,19.69,1111122 
DISL,ioos:station:DISL:MBLA:1,2011-10-01T01:30:00Z,30.4367,-88.0117,1.0,19.7,11111222 
DISL,ioos:station:DISL:MBLA:1,2011-10-01T02:03:00Z,30.4367,-88.0117,2.894,25.25,1111122 
DISL,ioos:station:DISL:MBLA:1,2011-10-01T02:06:00Z,30.4367,-88.0117,2.406,22.27,1111122 
DISL,ioos:station:DISL:MBLA:1,2011-10-01T02:09:00Z,30.4367,-88.0117,2.072,21.2,1111122 
DISL,ioos:station:DISL:MBLA:1,2011-10-01T02:12:00Z,30.4367,-88.0117,1.478,20.56,1111122 
DISL,ioos:station:DISL:MBLA:1,2011-10-01T02:14:00Z,30.4367,-88.0117,0.964,20.3,1111122 
DISL,ioos:station:DISL:MBLA:1,2011-10-01T02:17:00Z,30.4367,-88.0117,0.262,20.22,1111122 
DISL,ioos:station:DISL:MBLA:1,2011-10-01T02:30:00Z,30.4367,-88.0117,1.0,20.3,11111222 
DISL,ioos:station:DISL:MBLA:1,2011-10-01T03:03:00Z,30.4367,-88.0117,3.064,26.11,1111122 
DISL,ioos:station:DISL:MBLA:1,2011-10-01T03:06:00Z,30.4367,-88.0117,2.465,23.17,1111122 
DISL,ioos:station:DISL:MBLA:1,2011-10-01T03:08:00Z,30.4367,-88.0117,1.756,22.02,1111122 
DISL,ioos:station:DISL:MBLA:1,2011-10-01T03:11:00Z,30.4367,-88.0117,1.241,21.42,1111122 
DISL,ioos:station:DISL:MBLA:1,2011-10-01T03:14:00Z,30.4367,-88.0117,0.93,21.31,1111122 
DISL,ioos:station:DISL:MBLA:1,2011-10-01T03:17:00Z,30.4367,-88.0117,0.273,21.1,1111122 
DISL,ioos:station:DISL:MBLA:1,2011-10-01T03:30:00Z,30.4367,-88.0117,1.0,21.3,11111222 
DISL,ioos:station:DISL:MBLA:1,2011-10-01T04:03:00Z,30.4367,-88.0117,2.951,24.86,1111122 
DISL,ioos:station:DISL:MBLA:1,2011-10-01T04:05:00Z,30.4367,-88.0117,2.523,23.35,1111122 
DISL,ioos:station:DISL:MBLA:1,2011-10-01T04:08:00Z,30.4367,-88.0117,1.881,22.79,1111122 
DISL,ioos:station:DISL:MBLA:1,2011-10-01T04:11:00Z,30.4367,-88.0117,1.471,22.72,1111122 
DISL,ioos:station:DISL:MBLA:1,2011-10-01T04:14:00Z,30.4367,-88.0117,1.145,22.24,1111122 
DISL,ioos:station:DISL:MBLA:1,2011-10-01T04:17:00Z,30.4367,-88.0117,0.246,22.22,1111122 
DISL,ioos:station:DISL:MBLA:1,2011-10-01T04:30:00Z,30.4367,-88.0117,1.0,22.2,11111222 
DISL,ioos:station:DISL:MBLA:1,2011-10-01T05:03:00Z,30.4367,-88.0117,2.817,24.24,1111122 
DISL,ioos:station:DISL:MBLA:1,2011-10-01T05:06:00Z,30.4367,-88.0117,2.442,23.8,1111122 
DISL,ioos:station:DISL:MBLA:1,2011-10-01T05:09:00Z,30.4367,-88.0117,1.967,23.32,1111122 
DISL,ioos:station:DISL:MBLA:1,2011-10-01T05:11:00Z,30.4367,-88.0117,1.371,23.0,1111122 
DISL,ioos:station:DISL:MBLA:1,2011-10-01T05:14:00Z,30.4367,-88.0117,0.865,23.02,1111122 
DISL,ioos:station:DISL:MBLA:1,2011-10-01T05:17:00Z,30.4367,-88.0117,0.358,22.94,1111122 
DISL,ioos:station:DISL:MBLA:1,2011-10-01T05:30:00Z,30.4367,-88.0117,1.0,23.0,11111222 
DISL,ioos:station:DISL:MBLA:1,2011-10-01T06:03:00Z,30.4367,-88.0117,2.794,24.92,1111122 
DISL,ioos:station:DISL:MBLA:1,2011-10-01T06:06:00Z,30.4367,-88.0117,2.482,23.18,1111122 
DISL,ioos:station:DISL:MBLA:1,2011-10-01T06:09:00Z,30.4367,-88.0117,1.968,22.4,1111122 
DISL,ioos:station:DISL:MBLA:1,2011-10-01T06:11:00Z,30.4367,-88.0117,1.688,22.19,1111122 
DISL,ioos:station:DISL:MBLA:1,2011-10-01T06:14:00Z,30.4367,-88.0117,1.173,21.89,1111122 
DISL,ioos:station:DISL:MBLA:1,2011-10-01T06:17:00Z,30.4367,-88.0117,0.317,21.8,1111122 
DISL,ioos:station:DISL:MBLA:1,2011-10-01T06:30:00Z,30.4367,-88.0117,1.0,21.9,11111222 
DISL,ioos:station:DISL:MBLA:1,2011-10-01T07:03:00Z,30.4367,-88.0117,2.983,23.92,1111122 
DISL,ioos:station:DISL:MBLA:1,2011-10-01T07:05:00Z,30.4367,-88.0117,2.407,22.56,1111122 
DISL,ioos:station:DISL:MBLA:1,2011-10-01T07:08:00Z,30.4367,-88.0117,1.807,21.83,1111122 
DISL,ioos:station:DISL:MBLA:1,2011-10-01T07:11:00Z,30.4367,-88.0117,1.546,21.68,1111122 
DISL,ioos:station:DISL:MBLA:1,2011-10-01T07:14:00Z,30.4367,-88.0117,0.921,21.63,1111122 
DISL,ioos:station:DISL:MBLA:1,2011-10-01T07:17:00Z,30.4367,-88.0117,0.166,21.57,1111122 
DISL,ioos:station:DISL:MBLA:1,2011-10-01T07:30:00Z,30.4367,-88.0117,1.0,21.6,11111222 
DISL,ioos:station:DISL:MBLA:1,2011-10-01T08:03:00Z,30.4367,-88.0117,3.007,22.75,1111122 
DISL,ioos:station:DISL:MBLA:1,2011-10-01T08:05:00Z,30.4367,-88.0117,2.487,22.23,1111122 
DISL,ioos:station:DISL:MBLA:1,2011-10-01T08:08:00Z,30.4367,-88.0117,1.997,22.03,1111122 
DISL,ioos:station:DISL:MBLA:1,2011-10-01T08:11:00Z,30.4367,-88.0117,1.369,21.92,1111122 
DISL,ioos:station:DISL:MBLA:1,2011-10-01T08:14:00Z,30.4367,-88.0117,1.033,21.88,1111122 
DISL,ioos:station:DISL:MBLA:1,2011-10-01T08:17:00Z,30.4367,-88.0117,0.514,21.8,1111122 
DISL,ioos:station:DISL:MBLA:1,2011-10-01T08:30:00Z,30.4367,-88.0117,1.0,21.9,11111222 
DISL,ioos:station:DISL:MBLA:1,2011-10-01T09:03:00Z,30.4367,-88.0117,2.98,22.7,1111122 
DISL,ioos:station:DISL:MBLA:1,2011-10-01T09:06:00Z,30.4367,-88.0117,2.503,22.62,1111122 
DISL,ioos:station:DISL:MBLA:1,2011-10-01T09:08:00Z,30.4367,-88.0117,2.143,22.45,1111122 
DISL,ioos:station:DISL:MBLA:1,2011-10-01T09:11:00Z,30.4367,-88.0117,1.418,22.47,1111122 
DISL,ioos:station:DISL:MBLA:1,2011-10-01T09:14:00Z,30.4367,-88.0117,0.921,22.46,1111122 
DISL,ioos:station:DISL:MBLA:1,2011-10-01T09:17:00Z,30.4367,-88.0117,0.615,22.48,1111122 
DISL,ioos:station:DISL:MBLA:1,2011-10-01T09:30:00Z,30.4367,-88.0117,1.0,22.5,11111222 
DISL,ioos:station:DISL:MBLA:1,2011-10-01T10:03:00Z,30.4367,-88.0117,2.972,23.18,1111122 
DISL,ioos:station:DISL:MBLA:1,2011-10-01T10:06:00Z,30.4367,-88.0117,2.533,23.07,1111122 
DISL,ioos:station:DISL:MBLA:1,2011-10-01T10:08:00Z,30.4367,-88.0117,2.021,23.0,1111122 
DISL,ioos:station:DISL:MBLA:1,2011-10-01T10:11:00Z,30.4367,-88.0117,1.479,23.05,1111122 
DISL,ioos:station:DISL:MBLA:1,2011-10-01T10:14:00Z,30.4367,-88.0117,0.914,23.09,1111122 
DISL,ioos:station:DISL:MBLA:1,2011-10-01T10:16:00Z,30.4367,-88.0117,0.325,23.06,1111122 
DISL,ioos:station:DISL:MBLA:1,2011-10-01T10:30:00Z,30.4367,-88.0117,1.0,23.1,11111222 
DISL,ioos:station:DISL:MBLA:1,2011-10-01T11:03:00Z,30.4367,-88.0117,2.906,21.1,1111122 
DISL,ioos:station:DISL:MBLA:1,2011-10-01T11:05:00Z,30.4367,-88.0117,2.47,20.25,1111122 
DISL,ioos:station:DISL:MBLA:1,2011-10-01T11:08:00Z,30.4367,-88.0117,1.984,20.1,1111122 
DISL,ioos:station:DISL:MBLA:1,2011-10-01T11:11:00Z,30.4367,-88.0117,1.44,19.81,1111122 
DISL,ioos:station:DISL:MBLA:1,2011-10-01T11:14:00Z,30.4367,-88.0117,0.927,19.69,1111122 
DISL,ioos:station:DISL:MBLA:1,2011-10-01T11:16:00Z,30.4367,-88.0117,0.615,19.54,1111122 
DISL,ioos:station:DISL:MBLA:1,2011-10-01T11:30:00Z,30.4367,-88.0117,1.0,19.7,11111222 
DISL,ioos:station:DISL:MBLA:1,2011-10-01T12:03:00Z,30.4367,-88.0117,2.875,23.55,1111122 
DISL,ioos:station:DISL:MBLA:1,2011-10-01T12:05:00Z,30.4367,-88.0117,2.496,22.48,1111122 
DISL,ioos:station:DISL:MBLA:1,2011-10-01T12:08:00Z,30.4367,-88.0117,1.934,20.44,1111122 
DISL,ioos:station:DISL:MBLA:1,2011-10-01T12:11:00Z,30.4367,-88.0117,1.499,20.51,1111122 
DISL,ioos:station:DISL:MBLA:1,2011-10-01T12:14:00Z,30.4367,-88.0117,0.945,19.99,1111122 
DISL,ioos:station:DISL:MBLA:1,2011-10-01T12:16:00Z,30.4367,-88.0117,0.457,19.75,1111122 
DISL,ioos:station:DISL:MBLA:1,2011-10-01T12:30:00Z,30.4367,-88.0117,1.0,20.0,11111222 
DISL,ioos:station:DISL:MBLA:1,2011-10-01T13:03:00Z,30.4367,-88.0117,2.945,20.38,1111122 
DISL,ioos:station:DISL:MBLA:1,2011-10-01T13:05:00Z,30.4367,-88.0117,2.518,19.95,1111122 
DISL,ioos:station:DISL:MBLA:1,2011-10-01T13:08:00Z,30.4367,-88.0117,2.009,19.1,1111122 
DISL,ioos:station:DISL:MBLA:1,2011-10-01T13:11:00Z,30.4367,-88.0117,1.443,18.82,1111122 
DISL,ioos:station:DISL:MBLA:1,2011-10-01T13:14:00Z,30.4367,-88.0117,1.006,18.64,1111122 
DISL,ioos:station:DISL:MBLA:1,2011-10-01T13:17:00Z,30.4367,-88.0117,0.695,18.39,1111122 
DISL,ioos:station:DISL:MBLA:1,2011-10-01T13:30:00Z,30.4367,-88.0117,1.0,18.6,11111222 
DISL,ioos:station:DISL:MBLA:1,2011-10-01T14:03:00Z,30.4367,-88.0117,2.968,19.48,1111122 
DISL,ioos:station:DISL:MBLA:1,2011-10-01T14:06:00Z,30.4367,-88.0117,2.513,18.45,1111122 
DISL,ioos:station:DISL:MBLA:1,2011-10-01T14:08:00Z,30.4367,-88.0117,1.958,18.24,1111122 
DISL,ioos:station:DISL:MBLA:1,2011-10-01T14:11:00Z,30.4367,-88.0117,1.469,17.61,1111122 
DISL,ioos:station:DISL:MBLA:1,2011-10-01T14:14:00Z,30.4367,-88.0117,0.904,17.45,1111122 
DISL,ioos:station:DISL:MBLA:1,2011-10-01T14:16:00Z,30.4367,-88.0117,0.438,17.07,1111122 
DISL,ioos:station:DISL:MBLA:1,2011-10-01T14:30:00Z,30.4367,-88.0117,1.0,17.5,11111222 
DISL,ioos:station:DISL:MBLA:1,2011-10-01T15:03:00Z,30.4367,-88.0117,3.047,18.68,1111122 
DISL,ioos:station:DISL:MBLA:1,2011-10-01T15:06:00Z,30.4367,-88.0117,2.449,17.43,1111122 
DISL,ioos:station:DISL:MBLA:1,2011-10-01T15:08:00Z,30.4367,-88.0117,1.936,16.87,1111122 
DISL,ioos:station:DISL:MBLA:1,2011-10-01T15:11:00Z,30.4367,-88.0117,1.416,16.62,1111122 
DISL,ioos:station:DISL:MBLA:1,2011-10-01T15:14:00Z,30.4367,-88.0117,0.893,16.42,1111122 
DISL,ioos:station:DISL:MBLA:1,2011-10-01T15:17:00Z,30.4367,-88.0117,0.456,16.15,1111122 
DISL,ioos:station:DISL:MBLA:1,2011-10-01T15:30:00Z,30.4367,-88.0117,1.0,16.4,11111222 
DISL,ioos:station:DISL:MBLA:1,2011-10-01T16:03:00Z,30.4367,-88.0117,3.021,20.57,1111122 
DISL,ioos:station:DISL:MBLA:1,2011-10-01T16:06:00Z,30.4367,-88.0117,2.421,17.32,1111122 
DISL,ioos:station:DISL:MBLA:1,2011-10-01T16:08:00Z,30.4367,-88.0117,1.902,16.81,1111122 
DISL,ioos:station:DISL:MBLA:1,2011-10-01T16:11:00Z,30.4367,-88.0117,1.553,16.33,1111122 
DISL,ioos:station:DISL:MBLA:1,2011-10-01T16:14:00Z,30.4367,-88.0117,0.965,16.08,1111122 
DISL,ioos:station:DISL:MBLA:1,2011-10-01T16:17:00Z,30.4367,-88.0117,0.533,15.53,1111122 
DISL,ioos:station:DISL:MBLA:1,2011-10-01T16:30:00Z,30.4367,-88.0117,1.0,16.1,11111222 
DISL,ioos:station:DISL:MBLA:1,2011-10-01T17:03:00Z,30.4367,-88.0117,2.974,20.09,1111122 
DISL,ioos:station:DISL:MBLA:1,2011-10-01T17:06:00Z,30.4367,-88.0117,2.429,18.63,1111122 
DISL,ioos:station:DISL:MBLA:1,2011-10-01T17:08:00Z,30.4367,-88.0117,1.924,16.42,1111122 
DISL,ioos:station:DISL:MBLA:1,2011-10-01T17:11:00Z,30.4367,-88.0117,1.41,15.36,1111122 
DISL,ioos:station:DISL:MBLA:1,2011-10-01T17:14:00Z,30.4367,-88.0117,1.058,15.43,1111122 
DISL,ioos:station:DISL:MBLA:1,2011-10-01T17:17:00Z,30.4367,-88.0117,0.567,15.24,1111122 
DISL,ioos:station:DISL:MBLA:1,2011-10-01T17:30:00Z,30.4367,-88.0117,1.0,15.4,11111222 
DISL,ioos:station:DISL:MBLA:1,2011-10-01T18:03:00Z,30.4367,-88.0117,2.982,20.67,1111122 
DISL,ioos:station:DISL:MBLA:1,2011-10-01T18:05:00Z,30.4367,-88.0117,2.499,19.81,1111122 
DISL,ioos:station:DISL:MBLA:1,2011-10-01T18:08:00Z,30.4367,-88.0117,1.915,17.28,1111122 
DISL,ioos:station:DISL:MBLA:1,2011-10-01T18:11:00Z,30.4367,-88.0117,1.611,16.6,1111122 
DISL,ioos:station:DISL:MBLA:1,2011-10-01T18:14:00Z,30.4367,-88.0117,0.859,16.09,1111122 
DISL,ioos:station:DISL:MBLA:1,2011-10-01T18:18:00Z,30.4367,-88.0117,0.329,15.74,1111122 
DISL,ioos:station:DISL:MBLA:1,2011-10-01T18:30:00Z,30.4367,-88.0117,1.0,16.1,11111222 
DISL,ioos:station:DISL:MBLA:1,2011-10-01T19:03:00Z,30.4367,-88.0117,3.039,20.05,1111122 
DISL,ioos:station:DISL:MBLA:1,2011-10-01T19:06:00Z,30.4367,-88.0117,2.627,19.99,1111122 
DISL,ioos:station:DISL:MBLA:1,2011-10-01T19:08:00Z,30.4367,-88.0117,1.95,18.31,1111122 
DISL,ioos:station:DISL:MBLA:1,2011-10-01T19:11:00Z,30.4367,-88.0117,1.443,17.28,1111122 
DISL,ioos:station:DISL:MBLA:1,2011-10-01T19:14:00Z,30.4367,-88.0117,1.048,16.23,1111122 
DISL,ioos:station:DISL:MBLA:1,2011-10-01T19:17:00Z,30.4367,-88.0117,0.515,15.96,1111122 
DISL,ioos:station:DISL:MBLA:1,2011-10-01T19:30:00Z,30.4367,-88.0117,1.0,16.2,11111222 
DISL,ioos:station:DISL:MBLA:1,2011-10-01T20:03:00Z,30.4367,-88.0117,2.994,20.28,1111122 
DISL,ioos:station:DISL:MBLA:1,2011-10-01T20:05:00Z,30.4367,-88.0117,2.538,18.72,1111122 
DISL,ioos:station:DISL:MBLA:1,2011-10-01T20:08:00Z,30.4367,-88.0117,2.037,17.4,1111122 
DISL,ioos:station:DISL:MBLA:1,2011-10-01T20:11:00Z,30.4367,-88.0117,1.373,16.43,1111122 
DISL,ioos:station:DISL:MBLA:1,2011-10-01T20:14:00Z,30.4367,-88.0117,0.904,16.83,1111122 
DISL,ioos:station:DISL:MBLA:1,2011-10-01T20:17:00Z,30.4367,-88.0117,0.372,16.24,1111122 
DISL,ioos:station:DISL:MBLA:1,2011-10-01T20:30:00Z,30.4367,-88.0117,1.0,16.8,11111222 
DISL,ioos:station:DISL:MBLA:1,2011-10-01T21:03:00Z,30.4367,-88.0117,3.046,22.93,1111122 
DISL,ioos:station:DISL:MBLA:1,2011-10-01T21:06:00Z,30.4367,-88.0117,2.443,19.37,1111122 
DISL,ioos:station:DISL:MBLA:1,2011-10-01T21:09:00Z,30.4367,-88.0117,2.046,18.64,1111122 
DISL,ioos:station:DISL:MBLA:1,2011-10-01T21:11:00Z,30.4367,-88.0117,1.485,18.03,1111122 
DISL,ioos:station:DISL:MBLA:1,2011-10-01T21:15:00Z,30.4367,-88.0117,1.112,17.78,1111122 
DISL,ioos:station:DISL:MBLA:1,2011-10-01T21:17:00Z,30.4367,-88.0117,0.44,17.47,1111122 
DISL,ioos:station:DISL:MBLA:1,2011-10-01T21:30:00Z,30.4367,-88.0117,1.0,17.8,11111222 
DISL,ioos:station:DISL:MBLA:1,2011-10-01T22:03:00Z,30.4367,-88.0117,2.957,22.37,1111122 
DISL,ioos:station:DISL:MBLA:1,2011-10-01T22:05:00Z,30.4367,-88.0117,2.492,21.02,1111122 
DISL,ioos:station:DISL:MBLA:1,2011-10-01T22:08:00Z,30.4367,-88.0117,2.104,19.72,1111122 
DISL,ioos:station:DISL:MBLA:1,2011-10-01T22:11:00Z,30.4367,-88.0117,1.474,18.82,1111122 
DISL,ioos:station:DISL:MBLA:1,2011-10-01T22:14:00Z,30.4367,-88.0117,0.872,17.89,1111122 
DISL,ioos:station:DISL:MBLA:1,2011-10-01T22:17:00Z,30.4367,-88.0117,0.474,17.65,1111122 
DISL,ioos:station:DISL:MBLA:1,2011-10-01T22:30:00Z,30.4367,-88.0117,1.0,17.9,11111222 
DISL,ioos:station:DISL:MBLA:1,2011-10-01T23:03:00Z,30.4367,-88.0117,2.982,20.65,1111122 
DISL,ioos:station:DISL:MBLA:1,2011-10-01T23:05:00Z,30.4367,-88.0117,2.449,18.91,1111122 
DISL,ioos:station:DISL:MBLA:1,2011-10-01T23:08:00Z,30.4367,-88.0117,1.954,18.6,1111122 
DISL,ioos:station:DISL:MBLA:1,2011-10-01T23:11:00Z,30.4367,-88.0117,1.395,18.4,1111122 
DISL,ioos:station:DISL:MBLA:1,2011-10-01T23:14:00Z,30.4367,-88.0117,0.973,18.32,1111122 
DISL,ioos:station:DISL:MBLA:1,2011-10-01T23:17:00Z,30.4367,-88.0117,0.591,18.26,1111122 
DISL,ioos:station:DISL:MBLA:1,2011-10-01T23:30:00Z,30.4367,-88.0117,1.0,18.3,11111222 
DISL,ioos:station:DISL:MBLA:1,2011-10-02T00:03:00Z,30.4367,-88.0117,3.007,20.41,1111122 
DISL,ioos:station:DISL:MBLA:1,2011-10-02T00:06:00Z,30.4367,-88.0117,2.438,19.15,1111122 
DISL,ioos:station:DISL:MBLA:1,2011-10-02T00:08:00Z,30.4367,-88.0117,2.051,19.01,1111122 
DISL,ioos:station:DISL:MBLA:1,2011-10-02T00:11:00Z,30.4367,-88.0117,1.577,19.03,1111122 
DISL,ioos:station:DISL:MBLA:1,2011-10-02T00:14:00Z,30.4367,-88.0117,0.807,19.11,1111122 
DISL,ioos:station:DISL:MBLA:1,2011-10-02T00:17:00Z,30.4367,-88.0117,0.398,18.97,1111122 
DISL,ioos:station:DISL:MBLA:1,2011-10-02T00:30:00Z,30.4367,-88.0117,1.0,19.1,11111222 
DISL,ioos:station:DISL:MBLA:1,2011-10-02T01:03:00Z,30.4367,-88.0117,2.971,21.78,1111122 
DISL,ioos:station:DISL:MBLA:1,2011-10-02T01:05:00Z,30.4367,-88.0117,2.55,20.24,1111122 
DISL,ioos:station:DISL:MBLA:1,2011-10-02T01:08:00Z,30.4367,-88.0117,1.959,19.53,1111122 
DISL,ioos:station:DISL:MBLA:1,2011-10-02T01:11:00Z,30.4367,-88.0117,1.445,19.34,1111122 
DISL,ioos:station:DISL:MBLA:1,2011-10-02T01:14:00Z,30.4367,-88.0117,0.875,19.25,1111122 
DISL,ioos:station:DISL:MBLA:1,2011-10-02T01:17:00Z,30.4367,-88.0117,0.46,19.24,1111122 
DISL,ioos:station:DISL:MBLA:1,2011-10-02T01:30:00Z,30.4367,-88.0117,1.0,19.3,11111222 
DISL,ioos:station:DISL:MBLA:1,2011-10-02T02:03:00Z,30.4367,-88.0117,3.001,22.86,1111122 
DISL,ioos:station:DISL:MBLA:1,2011-10-02T02:06:00Z,30.4367,-88.0117,2.503,20.81,1111122 
DISL,ioos:station:DISL:MBLA:1,2011-10-02T02:08:00Z,30.4367,-88.0117,2.042,20.16,1111122 
DISL,ioos:station:DISL:MBLA:1,2011-10-02T02:11:00Z,30.4367,-88.0117,1.382,19.85,1111122 
DISL,ioos:station:DISL:MBLA:1,2011-10-02T02:14:00Z,30.4367,-88.0117,1.062,19.72,1111122 
DISL,ioos:station:DISL:MBLA:1,2011-10-02T02:17:00Z,30.4367,-88.0117,0.354,19.51,1111122 
DISL,ioos:station:DISL:MBLA:1,2011-10-02T02:30:00Z,30.4367,-88.0117,1.0,19.7,11111222 
DISL,ioos:station:DISL:MBLA:1,2011-10-02T03:03:00Z,30.4367,-88.0117,3.02,23.65,1111122 
DISL,ioos:station:DISL:MBLA:1,2011-10-02T03:06:00Z,30.4367,-88.0117,2.602,21.3,1111122 
DISL,ioos:station:DISL:MBLA:1,2011-10-02T03:08:00Z,30.4367,-88.0117,2.01,20.36,1111122 
DISL,ioos:station:DISL:MBLA:1,2011-10-02T03:12:00Z,30.4367,-88.0117,1.594,20.23,1111122 
DISL,ioos:station:DISL:MBLA:1,2011-10-02T03:14:00Z,30.4367,-88.0117,0.879,20.11,1111122 
DISL,ioos:station:DISL:MBLA:1,2011-10-02T03:17:00Z,30.4367,-88.0117,0.647,19.87,1111122 
DISL,ioos:station:DISL:MBLA:1,2011-10-02T03:30:00Z,30.4367,-88.0117,1.0,20.1,11111222 
DISL,ioos:station:DISL:MBLA:1,2011-10-02T04:03:00Z,30.4367,-88.0117,2.972,23.25,1111122 
DISL,ioos:station:DISL:MBLA:1,2011-10-02T04:06:00Z,30.4367,-88.0117,2.616,21.33,1111122 
DISL,ioos:station:DISL:MBLA:1,2011-10-02T04:08:00Z,30.4367,-88.0117,1.888,20.81,1111122 
DISL,ioos:station:DISL:MBLA:1,2011-10-02T04:11:00Z,30.4367,-88.0117,1.307,20.53,1111122 
DISL,ioos:station:DISL:MBLA:1,2011-10-02T04:14:00Z,30.4367,-88.0117,1.149,20.53,1111122 
DISL,ioos:station:DISL:MBLA:1,2011-10-02T04:17:00Z,30.4367,-88.0117,0.564,20.11,1111122 
DISL,ioos:station:DISL:MBLA:1,2011-10-02T04:30:00Z,30.4367,-88.0117,1.0,20.5,11111222 
DISL,ioos:station:DISL:MBLA:1,2011-10-02T05:03:00Z,30.4367,-88.0117,2.952,23.54,1111122 
DISL,ioos:station:DISL:MBLA:1,2011-10-02T05:05:00Z,30.4367,-88.0117,2.453,21.15,1111122 
DISL,ioos:station:DISL:MBLA:1,2011-10-02T05:08:00Z,30.4367,-88.0117,2.001,20.35,1111122 
DISL,ioos:station:DISL:MBLA:1,2011-10-02T05:11:00Z,30.4367,-88.0117,1.402,19.83,1111122 
DISL,ioos:station:DISL:MBLA:1,2011-10-02T05:14:00Z,30.4367,-88.0117,0.895,19.32,1111122 
DISL,ioos:station:DISL:MBLA:1,2011-10-02T05:17:00Z,30.4367,-88.0117,0.438,18.91,1111122 
DISL,ioos:station:DISL:MBLA:1,2011-10-02T05:30:00Z,30.4367,-88.0117,1.0,19.3,11111222 
DISL,ioos:station:DISL:MBLA:1,2011-10-02T06:03:00Z,30.4367,-88.0117,3.005,24.4,1111122 
DISL,ioos:station:DISL:MBLA:1,2011-10-02T06:06:00Z,30.4367,-88.0117,2.503,21.87,1111122 
DISL,ioos:station:DISL:MBLA:1,2011-10-02T06:08:00Z,30.4367,-88.0117,1.923,20.75,1111122 
DISL,ioos:station:DISL:MBLA:1,2011-10-02T06:11:00Z,30.4367,-88.0117,1.476,20.29,1111122 
DISL,ioos:station:DISL:MBLA:1,2011-10-02T06:14:00Z,30.4367,-88.0117,0.969,19.88,1111122 
DISL,ioos:station:DISL:MBLA:1,2011-10-02T06:16:00Z,30.4367,-88.0117,0.56,19.1,1111122 
DISL,ioos:station:DISL:MBLA:1,2011-10-02T06:30:00Z,30.4367,-88.0117,1.0,19.9,11111222 
DISL,ioos:station:DISL:MBLA:1,2011-10-02T07:03:00Z,30.4367,-88.0117,3.009,24.62,1111122 
DISL,ioos:station:DISL:MBLA:1,2011-10-02T07:06:00Z,30.4367,-88.0117,2.522,22.75,1111122 
DISL,ioos:station:DISL:MBLA:1,2011-10-02T07:08:00Z,30.4367,-88.0117,1.924,21.65,1111122 
DISL,ioos:station:DISL:MBLA:1,2011-10-02T07:11:00Z,30.4367,-88.0117,1.361,20.9,1111122 
DISL,ioos:station:DISL:MBLA:1,2011-10-02T07:14:00Z,30.4367,-88.0117,1.034,20.31,1111122 
DISL,ioos:station:DISL:MBLA:1,2011-10-02T07:17:00Z,30.4367,-88.0117,0.713,19.82,1111122 
DISL,ioos:station:DISL:MBLA:1,2011-10-02T07:30:00Z,30.4367,-88.0117,1.0,20.3,11111222 
DISL,ioos:station:DISL:MBLA:1,2011-10-02T08:03:00Z,30.4367,-88.0117,2.961,24.56,1111122 
DISL,ioos:station:DISL:MBLA:1,2011-10-02T08:06:00Z,30.4367,-88.0117,2.45,22.24,1111122 
DISL,ioos:station:DISL:MBLA:1,2011-10-02T08:08:00Z,30.4367,-88.0117,2.031,21.07,1111122 
DISL,ioos:station:DISL:MBLA:1,2011-10-02T08:11:00Z,30.4367,-88.0117,1.499,21.17,1111122 
DISL,ioos:station:DISL:MBLA:1,2011-10-02T08:14:00Z,30.4367,-88.0117,1.011,19.96,1111122 
DISL,ioos:station:DISL:MBLA:1,2011-10-02T08:16:00Z,30.4367,-88.0117,0.551,19.56,1111122 
DISL,ioos:station:DISL:MBLA:1,2011-10-02T08:30:00Z,30.4367,-88.0117,1.0,20.0,11111222 
DISL,ioos:station:DISL:MBLA:1,2011-10-02T09:03:00Z,30.4367,-88.0117,3.017,25.57,1111122 
DISL,ioos:station:DISL:MBLA:1,2011-10-02T09:06:00Z,30.4367,-88.0117,2.531,22.29,1111122 
DISL,ioos:station:DISL:MBLA:1,2011-10-02T09:08:00Z,30.4367,-88.0117,2.064,21.73,1111122 
DISL,ioos:station:DISL:MBLA:1,2011-10-02T09:11:00Z,30.4367,-88.0117,1.41,20.97,1111122 
DISL,ioos:station:DISL:MBLA:1,2011-10-02T09:14:00Z,30.4367,-88.0117,0.975,19.91,1111122 
DISL,ioos:station:DISL:MBLA:1,2011-10-02T09:17:00Z,30.4367,-88.0117,0.459,19.38,1111122 
DISL,ioos:station:DISL:MBLA:1,2011-10-02T09:30:00Z,30.4367,-88.0117,1.0,19.9,11111222 
DISL,ioos:station:DISL:MBLA:1,2011-10-02T10:03:00Z,30.4367,-88.0117,2.954,24.1,1111122 
DISL,ioos:station:DISL:MBLA:1,2011-10-02T10:06:00Z,30.4367,-88.0117,2.435,22.91,1111122 
DISL,ioos:station:DISL:MBLA:1,2011-10-02T10:08:00Z,30.4367,-88.0117,1.958,22.03,1111122 
DISL,ioos:station:DISL:MBLA:1,2011-10-02T10:11:00Z,30.4367,-88.0117,1.445,21.31,1111122 
DISL,ioos:station:DISL:MBLA:1,2011-10-02T10:14:00Z,30.4367,-88.0117,0.859,20.14,1111122 
DISL,ioos:station:DISL:MBLA:1,2011-10-02T10:16:00Z,30.4367,-88.0117,0.467,19.47,1111122 
DISL,ioos:station:DISL:MBLA:1,2011-10-02T10:30:00Z,30.4367,-88.0117,1.0,20.1,11111222 
DISL,ioos:station:DISL:MBLA:1,2011-10-02T11:03:00Z,30.4367,-88.0117,3.001,24.29,1111122 
DISL,ioos:station:DISL:MBLA:1,2011-10-02T11:06:00Z,30.4367,-88.0117,2.471,22.34,1111122 
DISL,ioos:station:DISL:MBLA:1,2011-10-02T11:09:00Z,30.4367,-88.0117,2.028,20.0,1111122 
DISL,ioos:station:DISL:MBLA:1,2011-10-02T11:11:00Z,30.4367,-88.0117,1.515,19.37,1111122 
DISL,ioos:station:DISL:MBLA:1,2011-10-02T11:14:00Z,30.4367,-88.0117,1.173,19.3,1111122 
DISL,ioos:station:DISL:MBLA:1,2011-10-02T11:17:00Z,30.4367,-88.0117,0.492,19.1,1111122 
DISL,ioos:station:DISL:MBLA:1,2011-10-02T11:30:00Z,30.4367,-88.0117,1.0,19.3,11111222 
DISL,ioos:station:DISL:MBLA:1,2011-10-02T12:03:00Z,30.4367,-88.0117,2.949,23.93,1111122 
DISL,ioos:station:DISL:MBLA:1,2011-10-02T12:05:00Z,30.4367,-88.0117,2.53,20.6,1111122 
DISL,ioos:station:DISL:MBLA:1,2011-10-02T12:08:00Z,30.4367,-88.0117,1.963,20.8,1111122 
DISL,ioos:station:DISL:MBLA:1,2011-10-02T12:11:00Z,30.4367,-88.0117,1.515,19.47,1111122 
DISL,ioos:station:DISL:MBLA:1,2011-10-02T12:14:00Z,30.4367,-88.0117,1.068,19.04,1111122 
DISL,ioos:station:DISL:MBLA:1,2011-10-02T12:16:00Z,30.4367,-88.0117,0.329,18.79,1111122 
DISL,ioos:station:DISL:MBLA:1,2011-10-02T12:30:00Z,30.4367,-88.0117,1.0,19.0,11111222 
DISL,ioos:station:DISL:MBLA:1,2011-10-02T13:03:00Z,30.4367,-88.0117,2.932,21.93,1111122 
DISL,ioos:station:DISL:MBLA:1,2011-10-02T13:05:00Z,30.4367,-88.0117,2.504,21.08,1111122 
DISL,ioos:station:DISL:MBLA:1,2011-10-02T13:08:00Z,30.4367,-88.0117,1.99,19.63,1111122 
DISL,ioos:station:DISL:MBLA:1,2011-10-02T13:11:00Z,30.4367,-88.0117,1.468,18.73,1111122 
DISL,ioos:station:DISL:MBLA:1,2011-10-02T13:14:00Z,30.4367,-88.0117,0.955,18.37,1111122 
DISL,ioos:station:DISL:MBLA:1,2011-10-02T13:16:00Z,30.4367,-88.0117,0.46,18.18,1111122 
DISL,ioos:station:DISL:MBLA:1,2011-10-02T13:30:00Z,30.4367,-88.0117,1.0,18.4,11111222 
DISL,ioos:station:DISL:MBLA:1,2011-10-02T14:03:00Z,30.4367,-88.0117,2.987,21.41,1111122 
DISL,ioos:station:DISL:MBLA:1,2011-10-02T14:06:00Z,30.4367,-88.0117,2.468,20.1,1111122 
DISL,ioos:station:DISL:MBLA:1,2011-10-02T14:08:00Z,30.4367,-88.0117,1.941,18.51,1111122 
DISL,ioos:station:DISL:MBLA:1,2011-10-02T14:11:00Z,30.4367,-88.0117,1.447,18.19,1111122 